Home   Weather   Jacksonville   Past weeks

Flag for USA Past Weather in Jacksonville, North Carolina, USA — Yesterday and Last 2 Weeks

Now
47 °F

Passing clouds.


Feels Like: 46 °F
Forecast: 48 / 69 °F
Wind: 3 mph from Northeast

Location: Jacksonville - New River

Current Time: Jan 17, 2017 at 6:18:58 am

Latest Report: Jan 17, 2017 at 5:56 am


Visibility: 10 mi

Pressure: 30.26 "Hg

Humidity: 93%

Dew Point: 45 °F

Location of JacksonvilleLocation

Past Weather in Jacksonville — Graph

°F

Jacksonville Temperature Yesterday

Maximum temperature yesterday: 55 °F (at 1:56 pm)
Minimum temperature yesterday: 45 °F (at 3:56 am)
Average temperature yesterday: 49 °F

High & Low Weather Summary for the Past Weeks

 TemperatureHumidityPressure
High77 °F (Jan 13, 2:56 pm)100% (Jan 2, 4:01 am)30.84 "Hg (Jan 2, 4:01 am)
Low16 °F (Jan 9, 12:56 am)28% (Jan 9, 2:56 pm)29.66 "Hg (Jan 4, 3:56 am)
Average49 °F81%30.27 "Hg
* Reported Jan 2 4:01 am — Jan 17 4:56 am, Jacksonville, Weather by CustomWeather, © 2017

Note: Actual official high and low records may vary slightly from our data, if they occured in-between our weather recording intervals... More about our weather records

Advertising

Jacksonville Weather History for the Previous 24 Hours

Scroll right to see more
 ConditionsComfort  
Time TempWeatherWind HumidityBarometerVisibility
4:56 am
Tue, Jan 17
48 °FPassing clouds.No wind93%30.25 "Hg10 mi
3:56 am48 °FOvercast.3 mph93%30.25 "Hg10 mi
2:56 am48 °FOvercast.3 mph96%30.28 "Hg10 mi
1:56 am49 °FPassing clouds.No wind90%30.29 "Hg10 mi
12:56 am49 °FOvercast.3 mph93%30.30 "Hg10 mi
11:56 pm
Mon, Jan 16
48 °FMostly cloudy.No wind96%30.31 "Hg10 mi
10:56 pm48 °FPartly cloudy.No wind89%30.33 "Hg10 mi
9:56 pm50 °FPassing clouds.No wind86%30.34 "Hg10 mi
9:07 pm51 °FPassing clouds.3 mph80%30.35 "Hg10 mi
8:56 pm52 °FPassing clouds.5 mph80%30.36 "Hg10 mi
7:56 pm53 °FOvercast.3 mph80%30.36 "Hg10 mi
6:56 pm54 °FOvercast.3 mph74%30.36 "Hg10 mi
5:56 pm55 °FOvercast.No wind72%30.38 "Hg10 mi
4:56 pm55 °FOvercast.No wind69%30.37 "Hg10 mi
3:56 pm55 °FOvercast.3 mph69%30.37 "Hg10 mi
2:56 pm55 °FOvercast.5 mph67%30.36 "Hg10 mi
1:56 pm55 °FOvercast.5 mph64%30.37 "Hg10 mi
11:56 am51 °FOvercast.6 mph69%30.42 "Hg10 mi
10:56 am50 °FOvercast.7 mph71%30.44 "Hg10 mi
9:56 am48 °FOvercast.9 mph74%30.43 "Hg10 mi
8:56 am47 °FOvercast.7 mph77%30.42 "Hg10 mi
8:20 am46 °FOvercast.8 mph77%30.40 "Hg10 mi
7:56 am46 °FOvercast.9 mph77%30.40 "Hg10 mi
7:24 am46 °FOvercast.9 mph73%30.39 "Hg10 mi
6:56 am45 °FOvercast.8 mph76%30.39 "Hg10 mi
Weather by CustomWeather, © 2017

See weather overviewHow to use our weather pages